Content
SEND FEEDBACK

Daily
Averages
Monthly
Summary
Philippines

QUEZON CITY, PHILIPPINES


Home > Asia > Philippines
Elevation: 46 meters     Latitude: 14 39N     Longitude: 121 03E

WEATHER
 
SELECT A DAY
Number of Records: 172,513;   Date Range: 7/1/96 - 7/29/14
 
SHARE

PRINT THIS DATA

[ ← Previous Day ]
WEATHER ALMANAC - 4 APRIL, 2013
[ Next Day → ]
[ °F ]   °C
Weather ElementAverageHighLow
Temperature30.3 °C34 °C (12:00 pm)26 °C (5:00 am)
Dewpoint22.1 °C24 °C (9:00 pm)20 °C (9:00 am)
Humidity60.4 %79 % (3:00 am)37 % (2:00 pm)
Barometer1007.8 hPa1010.2 hPa (8:00 am)1005.1 hPa (3:00 pm)
Wind Speed11.7 km/h21.6 km/h (2:00 pm)
Weather ElementAverage
Visibility9.8 km
Wind DirectionESE (116.7 °)

Weather ElementTotal
Precipitation---
Cooling Degree Days11.7 (Base 18.3)
Growing Degree Days20 (Base 10)
Averaged from 31 records on 4 April, 2013
WEATHER CONDITIONS BREAKOUT
WIND DIRECTION BREAKOUT
WEATHER BY HOUR - 4 APRIL, 2013
[ °F ]   °C
Local TimeTemperatureDewpointHumidityBarometerVisibilityWind DirectionWind SpeedGust SpeedPrecipitationEventsConditions
1:00 AM28 °C23 °C74 %1008.1 hPa10 kmSE (130°)13 km/hPartly Cloudy
2:00 AM27.8 °C22.8 °C68 %1008.5 hPa9.7 kmESE (120°)10.8 km/hScattered Clouds
2:00 AM28 °C23 °C74 %1008.1 hPa10 kmESE (120°)11.1 km/hPartly Cloudy
3:00 AM27 °C23 °C79 %1008.1 hPa10 kmESE (110°)9.3 km/hPartly Cloudy
4:00 AM27 °C23 °C79 %1008.1 hPa10 kmESE (110°)5.6 km/hPartly Cloudy
5:00 AM26.7 °C22.2 °C71 %1008.8 hPa9.7 kmCalmScattered Clouds
5:00 AM26 °C22 °C78 %1008.1 hPa10 kmCalmPartly Cloudy
6:00 AM26 °C22 °C78 %1008.1 hPa10 kmESE (120°)5.6 km/hPartly Cloudy
7:00 AM29 °C22 °C66 %1008.1 hPa10 kmSE (140°)5.6 km/hPartly Cloudy
8:00 AM29.4 °C21.1 °C52 %1010.2 hPa9.7 kmESE (120°)7.2 km/hPartly Cloudy
8:00 AM30 °C21 °C58 %1009.1 hPa10 kmESE (120°)7.4 km/hPartly Cloudy
9:00 AM30 °C20 °C55 %1010.2 hPa10 kmESE (110°)13 km/hPartly Cloudy
10:00 AM32 °C21 °C52 %1009.1 hPa10 kmESE (110°)13 km/hPartly Cloudy
11:00 AM31.7 °C21.7 °C46 %1010.2 hPa9.7 kmESE (110°)18 km/hPartly Cloudy
11:00 AM32 °C22 °C55 %1009.1 hPa10 kmESE (110°)18.5 km/hPartly Cloudy
12:00 PM34 °C22 °C49 %1008.1 hPa10 kmSE (130°)16.7 km/hPartly Cloudy
1:00 PM34 °C21 °C46 %1007.1 hPa10 kmESE (120°)18.5 km/hPartly Cloudy
2:00 PM33.3 °C20.6 °C37 %1006.4 hPa9.7 kmESE (110°)21.6 km/hPartly Cloudy
2:00 PM34 °C20 °C44 %1006.1 hPa10 kmESE (110°)20.4 km/hPartly Cloudy
3:00 PM34 °C21 °C46 %1005.1 hPa10 kmESE (120°)16.7 km/hPartly Cloudy
4:00 PM34 °C21 °C46 %1005.1 hPa10 kmESE (120°)14.8 km/hPartly Cloudy
5:00 PM32.8 °C21.7 °C42 %1005.1 hPa9.7 kmESE (120°)18 km/hPartly Cloudy
5:00 PM33 °C22 °C52 %1005.1 hPa10 kmESE (120°)16.7 km/hPartly Cloudy
6:00 PM32 °C22 °C55 %1005.1 hPa10 kmESE (120°)13 km/hPartly Cloudy
7:00 PM31 °C23 °C62 %1006.1 hPa10 kmESE (110°)11.1 km/hPartly Cloudy
8:00 PM30 °C22.2 °C56 %1007.5 hPa9.7 kmSE (130°)10.8 km/hPartly Cloudy
8:00 PM30 °C23 °C66 %1007.1 hPa10 kmSE (130°)11.1 km/hPartly Cloudy
9:00 PM30 °C24 °C70 %1008.1 hPa10 kmESE (120°)9.3 km/hPartly Cloudy
10:00 PM29 °C24 °C74 %1008.1 hPa10 kmSE (130°)9.3 km/hPartly Cloudy
11:00 PM28.9 °C23.9 °C68 %1008.8 hPa9.7 kmSE (140°)7.2 km/hScattered Clouds
11:00 PM29 °C24 °C74 %1008.1 hPa10 kmSE (140°)9.3 km/hPartly Cloudy
Hourly data recorded from RPLL, located 0 kilometers away from Quezon City, Philippines







STORIES FROM OUR PARTNERS